Content
SEND FEEDBACK

Daily
Averages
Monthly
Summary
Turkmenistan

ASHGABAT, TURKMENISTAN


Home > Asia > Turkmenistan
Elevation: 775 feet     Latitude: 37 58N     Longitude: 058 20E

WEATHER
 
SELECT A DAY
Number of Records: 177,237;   Date Range: 3/15/97 - 7/26/14
 
SHARE

PRINT THIS DATA

[ ← Previous Day ]
WEATHER ALMANAC - JUNE 21, 2013
[ Next Day → ]
[ °C ]   °F
Weather ElementAverageHighLow
Temperature86.2 °F93.2 °F (2:00 pm)78.8 °F (6:00 am)
Dewpoint54.2 °F61 °F (11:00 am)42.8 °F (1:00 am)
Humidity31.6 %45 % (8:00 am)21 % (1:00 am)
Barometer29.76 in29.80 in (8:00 am)29.69 in (2:00 am)
Wind Speed7.2 mph13.4 mph (1:00 am)
Wind Gust20.1 mph (2:00 pm)
Weather ElementAverage
Visibility6.1 mi
Wind DirectionWNW (275.7 °)

Weather ElementTotal
Precipitation---
Cooling Degree Days21 (Base 65)
Growing Degree Days36 (Base 50)
Averaged from 30 records on June 21, 2013
WEATHER CONDITIONS BREAKOUT
WIND DIRECTION BREAKOUT
WEATHER BY HOUR - JUNE 21, 2013
[ °C ]   °F
Local TimeTemperatureDewpointHumidityBarometerVisibilityWind DirectionWind SpeedGust SpeedPrecipitationEventsConditions
1:00 AM87.8 °F42.8 °F21 %29.71 in6.2 miWNW (290°)13.4 mphMostly Cloudy
2:00 AM85.0 °F52.0 °F22 %29.69 in6.0 miWest (280°)6.7 mphScattered Clouds
2:00 AM86.0 °F42.8 °F22 %29.71 in6.2 miWest (280°)6.7 mphMostly Cloudy
3:00 AM84.2 °F46.4 °F27 %29.71 in6.2 miNW (310°)8.9 mphMostly Cloudy
4:00 AM82.4 °F48.2 °F30 %29.71 in6.2 miNW (310°)8.9 mphMostly Cloudy
5:00 AM80.0 °F57.0 °F35 %29.73 in6.0 miWNW (300°)11.2 mphScattered Clouds
5:00 AM80.6 °F51.8 °F37 %29.74 in6.2 miWNW (300°)11.2 mphPartly Cloudy
6:00 AM78.8 °F53.6 °F42 %29.77 in6.2 miWest (270°)6.7 mphMostly Cloudy
7:00 AM80.6 °F53.6 °F39 %29.77 in6.2 miWNW (300°)4.5 mphMostly Cloudy
8:00 AM81.0 °F60.0 °F38 %29.76 in6.0 miNW (310°)6.7 mphScattered Clouds
8:00 AM80.6 °F57.2 °F45 %29.80 in6.2 miNW (310°)6.7 mphMostly Cloudy
9:00 AM82.4 °F57.2 °F42 %29.80 in6.2 miNW (320°)6.7 mphMostly Cloudy
10:00 AM82.4 °F57.2 °F42 %29.80 in6.2 miNW (310°)6.7 mphMostly Cloudy
11:00 AM86.0 °F61.0 °F33 %29.78 in6.0 miWNW (300°)4.5 mphRainLight Rain Showers
11:00 AM87.8 °F55.4 °F33 %29.80 in6.2 miNW (310°)4.5 mphOvercast
12:00 PM87.8 °F53.6 °F31 %29.77 in6.2 miNorth (10°)6.7 mphOvercast
1:00 PM91.4 °F51.8 °F26 %29.80 in6.2 miNNW (330°)6.7 mphOvercast
2:00 PM92.0 °F58.0 °F23 %29.77 in6.0 miWSW (240°)4.5 mphPartly Cloudy
2:00 PM93.2 °F50.0 °F23 %29.77 in6.2 miNE (40°)4.5 mph20.1 mphMostly Cloudy
3:00 PM91.4 °F51.8 °F26 %29.77 in6.2 miNNE (30°)6.7 mphRain-ThunderstormLight Thunderstorms and Rain
4:00 PM91.4 °F55.4 °F29 %29.77 in6.2 miNNW (340°)11.2 mphOvercast
5:00 PM90.0 °F61.0 °F27 %29.76 in6.0 miNorth (350°)11.2 mphPartly Cloudy
5:00 PM91.4 °F53.6 °F28 %29.77 in6.2 miNNW (340°)11.2 mphOvercast
6:00 PM91.4 °F51.8 °F26 %29.77 in6.2 miNNW (330°)6.7 mphMostly Cloudy
7:00 PM91.4 °F53.6 °F28 %29.77 in6.2 miNNW (330°)8.9 mphScattered Clouds
8:00 PM89.0 °F61.0 °F28 %29.75 in6.0 miNW (320°)4.5 mphScattered Clouds
8:00 PM89.6 °F55.4 °F31 %29.77 in6.2 miNNW (330°)4.5 mphPartly Cloudy
9:00 PM84.2 °F55.4 °F37 %29.77 in6.2 miNW (310°)4.5 mphScattered Clouds
10:00 PM84.2 °F55.4 °F37 %29.80 in6.2 miWSW (240°)6.7 mphPartly Cloudy
11:00 PM81.0 °F61.0 °F40 %29.77 in6.0 miSW (230°)4.5 mphClear
Hourly data recorded from UTAA, located miles away from Ashgabat, Turkmenistan







STORIES FROM OUR PARTNERS